This is the latest recevied weather packets stored in our database for station/object KQ4PPF. If no packets are shown the sender has not sent any weather packets the latest 10 day(s).
| Time | Temp. | Humidity | Pressure | Rain* | Wind** | Luminosity | Snow |
|---|---|---|---|---|---|---|---|
| 1777917564 | 25.56° C | 44% | 1014.5 hPa | 0 mm | - | 708 W/m² | - |
| 1777917261 | 25° C | 44% | 1014.8 hPa | 0 mm | - | 806 W/m² | - |
| 1777916958 | 24.44° C | 48% | 1014.6 hPa | 0 mm | - | 793 W/m² | - |
| 1777916656 | 25° C | 47% | 1014.7 hPa | 0 mm | - | 788 W/m² | - |
| 1777916353 | 25° C | 47% | 1014.7 hPa | 0 mm | - | 773 W/m² | - |
| 1777916049 | 25° C | 47% | 1015 hPa | 0 mm | - | 773 W/m² | - |
| 1777915747 | 23.89° C | 48% | 1014.9 hPa | 0 mm | - | 773 W/m² | - |
| 1777915443 | 23.33° C | 51% | 1015 hPa | 0 mm | - | 775 W/m² | - |
| 1777915139 | 23.89° C | 48% | 1015.2 hPa | 0 mm | - | 781 W/m² | - |
| 1777914836 | 24.44° C | 48% | 1015.2 hPa | 0 mm | - | 797 W/m² | - |
| 1777914533 | 24.44° C | 47% | 1015.4 hPa | 0 mm | - | 796 W/m² | - |
| 1777914230 | 24.44° C | 46% | 1015.4 hPa | 0 mm | - | 668 W/m² | - |
| 1777913926 | 25° C | 46% | 1015.5 hPa | 0 mm | - | 627 W/m² | - |
| 1777913623 | 25° C | 44% | 1015.6 hPa | 0 mm | - | 799 W/m² | - |
| 1777913319 | 24.44° C | 46% | 1015.6 hPa | 0 mm | - | 767 W/m² | - |
| 1777913016 | 23.89° C | 48% | 1015.6 hPa | 0 mm | - | 744 W/m² | - |
| 1777912712 | 23.89° C | 51% | 1015.8 hPa | 0 mm | - | 800 W/m² | - |
| 1777912408 | 23.89° C | 46% | 1015.9 hPa | 0 mm | - | 784 W/m² | - |
| 1777912105 | 23.33° C | 46% | 1015.9 hPa | 0 mm | - | 803 W/m² | - |
| 1777911800 | 23.89° C | 49% | 1015.9 hPa | 0 mm | - | 766 W/m² | - |
| 1777911498 | 23.89° C | 49% | 1016 hPa | 0 mm | - | 738 W/m² | - |
| 1777911194 | 23.33° C | 47% | 1016 hPa | 0 mm | - | 762 W/m² | - |
| 1777910892 | 22.78° C | 52% | 1016.3 hPa | 0 mm | - | 801 W/m² | - |
| 1777910588 | 22.78° C | 47% | 1016 hPa | 0 mm | - | 826 W/m² | - |
| 1777910286 | 22.78° C | 48% | 1016.1 hPa | 0 mm | - | 847 W/m² | - |
* Rain latest hour (hover to see other rain measurements)
** Current wind speed in m/s (hover to see current wind gust speed)